Regional Weather Roundup
Issued by NWS

Home | Current Version | Previous Version | Text Only | Print | Product List | Glossary On
Versions: 1 2 3 4 5 6 7 8 9 10 11 12 13 14 15 16 17 18 19 20 21 22 23 24 25 26 27 28 29 30 31 32 33 34 35 36 37 38 39 40 41 42 43 44 45 46 47 48 49 50
000
ASUS42 KTBW 181010
RWRFL
FLORIDA REGIONAL WEATHER ROUNDUP
NATIONAL WEATHER SERVICE TAMPA BAY RUSKIN FL
600 AM EDT THU SEP 18 2014

NOTE: "FAIR" INDICATES FEW OR NO CLOUDS BELOW 12,000 FEET WITH NO
SIGNIFICANT WEATHER AND/OR OBSTRUCTIONS TO VISIBILITY.


FLZ001>010-012>015-112-114-115-181100-
PANHANDLE FLORIDA

CITY           SKY/WX    TMP DP  RH WIND       PRES   REMARKS
PENSACOLA      CLOUDY    73  72  96 N5        29.90R
PENSACOLA NAS  CLOUDY    74  73  97 N3        29.89S FOG
MILTON NAS     MOCLDY    71  68  90 CALM      29.90S
CRESTVIEW      CLEAR     69  68  96 CALM      29.92R FOG
DUKE FIELD     FAIR      71  71 100 W1        29.91R
VALPARAISO     PTCLDY    73  70  89 CALM      29.90S
MARY ESTHER    PTCLDY    72  67  84 N6        29.89R
TRI COUNTY     FAIR      69  69 100 CALM      29.91R FOG
PANAMA CITY    FAIR      72  69  90 NW3       29.88S
TYNDALL AFB    CLEAR     72  72 100 CALM      29.89R
APALACHICOLA   CLEAR     73  69  87 CALM      29.88S

STATION/POSITION SKY/WX   TEMP    WIND        PRES    WAVE   SWELL
                          AIR SEA DIR/SP/G            HT/PER HT/PER
                          (F)     (DEG/KT/KT) (MB)    (FT/S) (FT/S)
30.1N   87.6W              82 85  360/  8/ 10 1011.9F   1/ 8   2/ 8
29.2N   88.2W              82 85  340/  2/  4 1012.4S   1/ 5
28.8N   86.0W              82 85   30/  4/  4 1011.8S   1/ 6   2/ 6
PANAMA CITY BEAC           77 86  330/  5/  6 1012.0R
CAPE SAN BLAS    NOT AVBL
TOWER C                    81     340/  5/  6 1012.1R
28.5N   84.5W              82 85  360/  2/  4 1012.0R   1/ 5   2/ 5

$$
FLZ011-016>038-118-127-128-134-139-239-181100-
NORTH FLORIDA

CITY           SKY/WX    TMP DP  RH WIND       PRES   REMARKS
MARIANNA       CLEAR     70  70 100 CALM      29.89R
TALLAHASSEE    PTCLDY    70  69  97 SW3       29.90R
PERRY          CLEAR     72  72 100 CALM      29.90R
CROSS CITY       N/A     72  70  93 CALM      29.89R
LAKE CITY      FAIR      70  70 100 CALM      29.89S FOG
GAINESVILLE    CLEAR     70  69  97 CALM      29.89S
MAYPORT NAS    CLEAR     74  72  93 CALM      29.88S
JACKSONVILLE   PTCLDY    71  71 100 CALM      29.88S
JAX NAS        MOCLDY    76  71  85 W5        29.89S
JAX CRAIG      CLEAR     73  71  93 CALM      29.88S
JAX CECIL      CLEAR     68  68 100 CALM      29.89S FOG
ST AUGUSTINE   CLEAR     73  71  93 SW6       29.90R

STATION/POSITION SKY/WX   TEMP    WIND        PRES    WAVE   SWELL
                          AIR SEA DIR/SP/G            HT/PER HT/PER
                          (F)     (DEG/KT/KT) (MB)    (FT/S) (FT/S)
SHELL POINT                75     310/  1/  3   N/A
KEATON BEACH               75      CALM  /  1 1012.2R
CEDAR KEY                  79      20/  1/  1 1012.4R
FERNANDINA                 77 85  310/  3/  3 1011.3R
30.7N   81.3W                 83                N/A     3/14   2/14
MAYPORT                    75 84  170/  3/  4   N/A
31.4N   80.9W              78 84  130/  2/  6 1011.7F   3/13   3/13
ST AUGUSTINE               73     240/  4/  5 1012.8R

$$
FLZ040-043>046-052-053-057-058-063-144-181100-
INTERIOR CENTRAL FLORIDA

CITY           SKY/WX    TMP DP  RH WIND       PRES   REMARKS
OCALA          CLEAR     70  66  88 CALM      29.90S
THE VILLAGES   FOG       72  72 100 CALM      29.81R VSB 0
LEESBURG       CLEAR     73  71  93 CALM      29.91R FOG
SANFORD        CLEAR     72  70  93 NW5       29.90R
ORLANDO EXEC   CLEAR     74  73  97 CALM      29.90R
ORLANDO INTL   MOCLDY    73  72  96 W3        29.90R FOG
WINTER HAVEN   FOG       71  71 100 N3        29.91S VSB 1/4
LAKELAND       CLEAR     73  70  88 CALM      29.90S FOG
BARTOW         FOG       72 N/A N/A CALM      29.91S VSB<1/4
OKEECHOBEE       N/A     68  68 100 MISG        N/A

$$
FLZ041-047-054-059-064-141-147-181100-
EAST CENTRAL FLORIDA

CITY           SKY/WX    TMP DP  RH WIND       PRES   REMARKS
DAYTONA BEACH  CLEAR     71  69  93 CALM      29.90R
DELAND         SUNNY     68  68 100 CALM      29.91R
JFK SPACE CTR  CLEAR     74  72  95 CALM      29.89R
CAPE CANAVERAL CLEAR     75  73  94 W7        29.88S
PATRICK AFB    CLOUDY    75  74  98 W7        29.89S
MELBOURNE      CLOUDY    74  72  93 W6        29.89R
VERO BEACH     FOG       71  69  93 NW6       29.90R VSB 3/4
FT PIERCE      CLOUDY    73  70  90 W7        29.90R FOG
STUART         CLEAR     72  70  94 CALM      29.91R

STATION/POSITION SKY/WX   TEMP    WIND        PRES    WAVE   SWELL
                          AIR SEA DIR/SP/G            HT/PER HT/PER
                          (F)     (DEG/KT/KT) (MB)    (FT/S) (FT/S)
28.5N   80.2W              79 85  280/ 10/ 14 1011.8R
28.9N   78.5W              81 85   30/  8/ 10 1011.8R   5/14   5/14
TRIDENT PIER               75 85  260/  5/  6 1011.5S
28.4N   80.5W                 84                N/A     3/13   3/13
27.6N   80.2W                 83                N/A     3/12   2/12

$$
FLZ050-056-061-142-242-148-248-149-249-151-251-155-255-
160-260-181100-
WEST CENTRAL FLORIDA

CITY           SKY/WX    TMP DP  RH WIND       PRES   REMARKS
CRYSTAL RIVER  FAIR      68  68 100 CALM      29.90R
INVERNESS      PTSUNNY   70  61  73 CALM      29.91R HAZE
BROOKSVILLE    MOCLDY    70  69  97 CALM      29.91R FOG
ZEPHYRHILLS    FOG       63  63 100 CALM      29.92R VSB 3/4
CLEARWATER     CLEAR     73  72  96 CALM      29.90R
TAMPA INTL     CLEAR     74  71  91 CALM      29.90R
TAMPA EXEC       N/A     72  70  94 CALM      29.91R FOG
PLANT CITY     FOG       72 N/A N/A CALM      29.92R VSB 3/4
MACDILL AFB    FOG       72  72 100 NE2       29.90R VSB 1
ST PETERSBURG  CLEAR     76  73  91 N5        29.88R
SARASOTA       CLEAR     72  72 100 NE5       29.88R
VENICE           N/A    N/A N/A N/A MISG        N/A

STATION/POSITION SKY/WX   TEMP    WIND        PRES    WAVE   SWELL
                          AIR SEA DIR/SP/G            HT/PER HT/PER
                          (F)     (DEG/KT/KT) (MB)    (FT/S) (FT/S)
CEDAR KEY                  79      20/  1/  1 1012.4R
28.5N   84.5W              82 85  360/  2/  4 1012.0R   1/ 5   2/ 5
27.3N   84.3W                 85                N/A     2/ 5
CLEARWATER BEACH NOT AVBL
MIDDLE TAMPA BAY           75     130/  5/  6 1012.5R
VENICE                     74 84   70/  5/  5 1011.7R

$$
FLZ066-069-070-075>078-162-262-165-265-181100-
SOUTHWEST FLORIDA AND KEYS

CITY           SKY/WX    TMP DP  RH WIND       PRES   REMARKS
PUNTA GORDA    PTCLDY    74  72  93 NE5       29.90R
FT MYERS       MOCLDY    75  74  96 S3        29.88R
SOUTHWEST INTL PTCLDY    73  69  87 E5        29.89R
NAPLES         PTCLDY    77  74  90 SE3       29.88R
MARCO ISLAND   SUNNY     73  72  94 SW3       29.88R
MARATHON       PTCLDY    77  76  96 CALM      29.90R
KEY WEST NAS   MOCLDY    80  74  81 S5        29.90R
KEY WEST INTL  MOCLDY    83  73  72 SW3       29.90S

STATION/POSITION SKY/WX   TEMP    WIND        PRES    WAVE   SWELL
                          AIR SEA DIR/SP/G            HT/PER HT/PER
                          (F)     (DEG/KT/KT) (MB)    (FT/S) (FT/S)
VENICE                     74 84   70/  5/  5 1011.7R
NAPLES                     81 88  300/ 12/ 14 1012.2R
DRY TORTUGAS               83     250/  7/  8 1012.3R
NW FL BAY                  81      CALM  /  1 1012.1F
SAND KEY                   82     180/  3/  4 1012.4R
SOMBRERO KEY               82     220/  5/  6 1013.3R
LONG KEY                   81 85  110/  3/  3 1012.8S
MOLASSES REEF              81 85  230/  3/  4 1012.4R

$$
FLZ067-068-071>074-168-172>174-181100-
SOUTHEAST FLORIDA

CITY           SKY/WX    TMP DP  RH WIND       PRES   REMARKS
W PALM BEACH   MOCLDY    75  72  90 W3        29.89R
FT LAUDER-EXEC MOCLDY    76  74  93 CALM      29.89R
FT LAUDERDALE  CLOUDY    79  72  79 CALM      29.89R
POMPANO BEACH  MOCLDY    78  72  81 CALM      29.89R
PEMBROKE PINES CLOUDY    78  71  79 CALM      29.90R
OPA LOCKA      CLOUDY    77  71  82 SW3       29.89R
MIAMI          CLOUDY    78  71  79 CALM      29.90R
WEST KENDALL   CLOUDY    77  72  84 SW5       29.89S
HOMESTEAD      MOCLDY    74  73  96 SW3       29.90R

STATION/POSITION SKY/WX   TEMP    WIND        PRES    WAVE   SWELL
                          AIR SEA DIR/SP/G            HT/PER HT/PER
                          (F)     (DEG/KT/KT) (MB)    (FT/S) (FT/S)
PORT EVERGLADES            78     220/  2/  3 1012.0
VIRGINIA KEY               80 85  260/  5/  6   N/A
LAKE WORTH                 76 85  290/  4/  5 1012.0R
FOWEY ROCKS                80 85  240/  2/  3 1012.5R
SETTLEMENT POINT           81     260/ 13/ 14 1012.6R

$$



USA.gov is the U.S. government's official web portal to all federal, state and local government web resources and services.